Preview of NWS' New Version of Forecast
This preview is not operational and should not be used for support decisions.

Regional Weather Roundup (RWR)

Issued by National Weather Service (NWS)

                            
000
ASUS43 KLSX 230207
RWRMO 

WEATHER SUMMARY FOR MISSOURI
NATIONAL WEATHER SERVICE SPRINGFIELD MO
800 PM CST FRI FEB 22 2019

NOTE: "FAIR" INDICATES FEW OR NO CLOUDS BELOW 12,000 FEET WITH NO
       SIGNIFICANT WEATHER AND/OR OBSTRUCTIONS TO VISIBILITY.
       CURRENT SKY AND/OR WEATHER CONDITIONS ARE NOT AVAILABLE FOR
       CHILLICOTHE AND FARMINGTON.

MOZ001>031-035>038-043-044-053-054-230300-
...NORTHERN AND WESTERN MISSOURI...
  
CITY           SKY/WX    TMP DP  RH WIND       PRES   REMARKS
KANSAS CTY INT CLOUDY    35  33  92 E12       30.04F FOG     WCI  27  
KANSAS C DTWN  CLOUDY    37  34  89 E7        30.04F FOG              
LEE'S SUMMIT   CLOUDY    35  35 100 E10       30.03F FOG     WCI  27  
ST JOSEPH      LGT RAIN  34  32  92 E10       30.05F FOG     WCI  26  
CHILLICOTHE      N/A     36  33  89 E8        30.13F WCI  30          
KIRKSVILLE     CLOUDY    37  32  82 E9        30.13F                  
     
$$
MOZ066>068-077>081-088>096-101>105-230300-
...SOUTHWEST MISSOURI...
  
CITY           SKY/WX    TMP DP  RH WIND       PRES   REMARKS
SPRINGFIELD    LGT RAIN  41  39  93 SE13      30.02F FOG              
JOPLIN         CLOUDY    42  40  92 E10       29.98F                  
BRANSON        FOG       39  39 100 E13G18    30.04F VSB 1/8          
               
$$
MOZ032>034-039>042-045>050-055>058-069>072-230300-
...CENTRAL MISSOURI...  
  
CITY           SKY/WX    TMP DP  RH WIND       PRES   REMARKS
COLUMBIA       CLOUDY    38  35  89 E16G24    30.10F WCI  29          
JEFFERSON CITY CLOUDY    40  36  86 E13       30.13S                  
ROLLA          CLOUDY    36  34  92 E13       30.11F FOG     WCI  27  
SEDALIA        MIX PCPN  37  32  82 E9        30.08F                  
WHITEMAN AFB   CLOUDY    37  37 100 E6        30.03F FOG              
WARRENSBURG    CLOUDY    36  34  93 E7        30.06F FOG     WCI  30  
OSAGE BEACH    CLOUDY    38  37  97 E8        30.10S FOG              
               
$$
MOZ051-052-059>065-230300-
...EAST CENTRAL MISSOURI...
  
CITY           SKY/WX    TMP DP  RH WIND       PRES   REMARKS
ST LOUIS INTL  CLOUDY    40  32  73 E10       30.19S                  
SPIRIT OF STL  CLOUDY    39  36  89 E6        30.18S FOG              
ST CHARLES     CLOUDY    40  32  73 E6        30.19F                  
                   
$$
MOZ072>076-082>087-097>100-106>115-230300-
...SOUTH CENTRAL AND SOUTHEAST MISSOURI...
  
CITY           SKY/WX    TMP DP  RH WIND       PRES   REMARKS
CAPE GIRARDEAU CLOUDY    45  38  76 E9        30.14F                  
FARMINGTON     CLOUDY    38  35  89 E3        30.16S                  
POPLAR BLUFF   CLOUDY    44  40  85 NE7       30.12F                  
WEST PLAINS    CLOUDY    41  40  96 E8        30.09R FOG              
                                       
$$